Location: Banska Bystrica
(48.7330°N, 19.1500°E)
Time: 08:47:16
(UTC+02:00)

ISS - Pass Details

Date: 25 March 2019
Orbit: 408 x 410 km, 51.6° (Epoch: 25 April)

Event Time Altitude Azimuth Distance (km) Brightness Sun altitude
Rises 18:37:09 0° 229° (SW) 2,327 0.6 -6.4°
Reaches altitude 10° 18:39:16 10° 223° (SW) 1,468 -0.5 -6.7°
Maximum altitude 18:42:26 45° 150° (SSE) 567 -3.4 -7.2°
Drops below altitude 10° 18:45:34 10° 76° (ENE) 1,459 -1.6 -7.8°
Enters shadow 18:45:57 - 74° (ENE) 1,608 -1.3 -7.8°
